Location: Antin
(43.3330°N, 0.2804°E)
Time: 22:02:20
(UTC+00:00)

Cosmos 2344 - Pass Details

Date: 16 October 2021
Orbit: 1233 x 3009 km, 63.3° (Epoch: 03 December)

Event Time Altitude Azimuth Distance (km) Brightness Sun altitude
Rises 20:01:57 0° 323° (NW) 4,530 7.2 -31.0°
Reaches altitude 10° 20:04:33 10° 325° (NW) 3,687 6.6 -31.5°
Maximum altitude 20:13:51 78° 52° (NE) 1,918 4.2 -33.1°
Enters shadow 20:16:02 63° 118° (ESE) 2,155 4.3 -33.4°
